Ray Roberts Lake Weather Center

Moon Phase Calendar



Ray Roberts Lake Water Level
Online Cameras

 


      

Current Conditions in Pilot Point
9/30/2022 8:07:59 AM

57°F
Feels Like 56
Clear
Humidity
69%
Pressure
30.15"
Wind
7.1 mph (ESE)
Dew Point
47°F
UV Index
0/10 (Low)
Visibility
6 mi

Hourly Forecast

Date & Time Fri, Sep 30
8:00 AM
Fri, Sep 30
9:00 AM
Fri, Sep 30
10:00 AM
Fri, Sep 30
11:00 AM
Fri, Sep 30
12:00 PM
Fri, Sep 30
1:00 PM
Fri, Sep 30
2:00 PM
Fri, Sep 30
3:00 PM
Fri, Sep 30
4:00 PM
Fri, Sep 30
5:00 PM
Fri, Sep 30
6:00 PM
Fri, Sep 30
7:00 PM
Fri, Sep 30
8:00 PM
Fri, Sep 30
9:00 PM
Fri, Sep 30
10:00 PM
Fri, Sep 30
11:00 PM
Sat, Oct 1
12:00 AM
Sat, Oct 1
1:00 AM
Sat, Oct 1
2:00 AM
Sat, Oct 1
3:00 AM
Sat, Oct 1
4:00 AM
Sat, Oct 1
5:00 AM
Sat, Oct 1
6:00 AM
Sat, Oct 1
7:00 AM
Sat, Oct 1
8:00 AM
Sat, Oct 1
9:00 AM
Sat, Oct 1
10:00 AM
Sat, Oct 1
11:00 AM
Sat, Oct 1
12:00 PM
Sat, Oct 1
1:00 PM
Sat, Oct 1
2:00 PM
Sat, Oct 1
3:00 PM
Sat, Oct 1
4:00 PM
Sat, Oct 1
5:00 PM
Sat, Oct 1
6:00 PM
Sat, Oct 1
7:00 PM
Sat, Oct 1
8:00 PM
Sat, Oct 1
9:00 PM
Sat, Oct 1
10:00 PM
Sat, Oct 1
11:00 PM
Sun, Oct 2
12:00 AM
Sun, Oct 2
1:00 AM
Sun, Oct 2
2:00 AM
Sun, Oct 2
3:00 AM
Sun, Oct 2
4:00 AM
Sun, Oct 2
5:00 AM
Sun, Oct 2
6:00 AM
Sun, Oct 2
7:00 AM
Condition
Clear

Clear

Clear

Clear

Clear

Clear

Clear

Clear

Clear

Clear

Clear

Clear

Clear

Clear

Clear

Clear

Clear

Clear

Clear

Clear

Clear

Clear

Clear

Clear

Clear

Clear

Clear

Clear

Clouds

Clouds

Clouds

Clouds

Clear

Clear

Clear

Clear

Clear

Clear

Clear

Clear

Clear

Clear

Clear

Clear

Clear

Clear

Clear

Clear
Temperature 57°F58°F61°F65°F70°F77°F79°F81°F82°F82°F81°F74°F69°F67°F66°F64°F63°F62°F61°F60°F59°F58°F57°F57°F58°F64°F69°F74°F77°F79°F82°F83°F84°F84°F83°F74°F70°F68°F67°F65°F64°F63°F62°F62°F61°F59°F58°F58°F
Feels Like 56°F56°F59°F63°F69°F75°F79°F79°F80°F80°F79°F72°F67°F65°F63°F61°F60°F59°F58°F57°F56°F56°F55°F54°F55°F62°F68°F72°F75°F79°F80°F80°F81°F81°F80°F73°F68°F66°F65°F63°F62°F61°F60°F59°F58°F57°F56°F55°F
Cloudiness 0%0%0%0%0%0%0%0%0%0%0%0%0%0%0%0%1%2%7%3%2%2%1%1%0%0%0%1%15%15%22%12%8%6%5%4%0%0%0%0%0%0%0%0%0%0%0%0%
Visibility 6 mi6 mi6 mi6 mi6 mi6 mi6 mi6 mi6 mi6 mi6 mi6 mi6 mi6 mi6 mi6 mi6 mi6 mi6 mi6 mi6 mi6 mi6 mi6 mi6 mi6 mi6 mi6 mi6 mi6 mi6 mi6 mi6 mi6 mi6 mi6 mi6 mi6 mi6 mi6 mi6 mi6 mi6 mi6 mi6 mi6 mi6 mi6 mi
Precipitation 0%0%0%0%0%0%0%0%0%0%0%0%0%0%0%0%0%0%0%0%0%0%0%0%0%0%0%0%0%0%0%0%0%0%0%0%0%0%0%0%0%0%0%0%0%0%0%0%
Humidity 69%63%55%46%35%25%23%22%22%21%23%29%29%27%28%31%36%38%39%41%43%45%47%48%48%41%35%30%26%22%20%18%17%17%19%24%25%25%27%31%34%35%35%35%35%37%38%40%
Dew Point 47°F45°F44°F44°F42°F38°F38°F39°F39°F39°F40°F39°F35°F32°F31°F33°F35°F35°F35°F36°F36°F37°F37°F37°F38°F40°F40°F40°F39°F38°F37°F36°F35°F34°F36°F35°F33°F31°F32°F34°F35°F35°F34°F34°F33°F33°F33°F33°F
Pressure 30.15"30.15"30.15"30.12"30.12"30.09"30.03"30"29.97"29.94"29.94"29.94"29.97"29.97"30"30"30"30"30"30"30.03"30.03"30.03"30.06"30.06"30.09"30.09"30.09"30.06"30.06"30.03"30"29.97"29.97"29.97"29.97"30"30.03"30.06"30.06"30.06"30.06"30.06"30.09"30.09"30.09"30.12"30.15"
Wind Speed 7.1 mph8.7 mph9.5 mph9 mph8.2 mph7.4 mph7.2 mph7.3 mph7.3 mph6.8 mph6.4 mph6.1 mph7.1 mph7.2 mph8 mph8.3 mph7.9 mph7.3 mph6.5 mph6.1 mph5.9 mph5.8 mph5.4 mph5.5 mph5.3 mph5 mph5.6 mph6 mph6.6 mph6.7 mph6.8 mph6.3 mph5.9 mph5.7 mph5.3 mph5.7 mph7.1 mph7.7 mph7.9 mph7.2 mph5.6 mph5.1 mph4 mph4.2 mph6 mph5.6 mph5 mph5.2 mph
Wind
Direction
110°
ESE
114°
ESE
116°
ESE
122°
ESE
124°
SE
127°
SE
127°
SE
122°
ESE
121°
ESE
120°
ESE
113°
ESE
113°
ESE
108°
ESE
110°
ESE
126°
SE
140°
SE
143°
SE
145°
SE
143°
SE
137°
SE
134°
SE
132°
SE
130°
SE
127°
SE
126°
SE
131°
SE
133°
SE
130°
SE
126°
SE
123°
ESE
119°
ESE
118°
ESE
117°
ESE
115°
ESE
116°
ESE
115°
ESE
105°
ESE
112°
ESE
134°
SE
143°
SE
146°
SE
143°
SE
141°
SE
111°
ESE
95°
E
105°
ESE
104°
ESE
79°
E

Daily Forecast

Date High Low Precip. Humidity
Today
Sep 30

Clear
82 °F
56 °F
0%
25%
Saturday
Oct 1

Clouds
84 °F
57 °F
0%
22%
Sunday
Oct 2

Clear
85 °F
58 °F
0%
21%
Monday
Oct 3

Clouds
83 °F
60 °F
0%
25%
Tuesday
Oct 4

Clouds
85 °F
62 °F
0%
28%
Wednesday
Oct 5

Clouds
89 °F
63 °F
0%
24%
Thursday
Oct 6

Clear
86 °F
65 °F
0%
25%
Friday
Oct 7

Clouds
79 °F
52 °F
0%
16%
Saturday
Oct 8

Clouds
80 °F
54 °F
0%
18%
Sunday
Oct 9

Clear
81 °F
55 °F
0%
24%
Monday
Oct 10

Clouds
83 °F
58 °F
0%
22%
Tuesday
Oct 11

Clouds
84 °F
61 °F
0%
22%
Wednesday
Oct 12

Clouds
86 °F
64 °F
0%
24%
Thursday
Oct 13

Clouds
85 °F
69 °F
0%
24%
Friday
Oct 14

Clouds
85 °F
61 °F
0%
24%
Saturday
Oct 15

Clear
88 °F
62 °F
0%
23%

Temperature 8-14 Day Outlook



Precipitation 8-14 Day Outlook




Quick Links
Ray Roberts Lake News
Ray Roberts Lake Photos
Ray Roberts Lake Videos




About Us
Contact Us
Site Map
Search Site
Advertise With Us
   
RayRoberts.USLakes.info
THE RAY ROBERTS LAKE WEBSITE

Copyright 2022, Lakes Online
Privacy    |    Legal